EW0802 Weather Reports


Display with metric or nautical units.
time (UTC)temp
F
wind
direction
speed
MPH
gust
MPH
rain 1hr
in
rain 24hr
in
rain mn
in
humidity
%
barometer
mb
20260505003059 77 201 4.0 15.0 0.00 0.00 0.00 66 1004.8
20260505001554 77 141 5.0 12.0 0.00 0.00 0.00 65 1004.9
20260505000058 78 111 6.0 13.0 0.00 0.00 0.00 64 1005.0
20260504234615 78 142 4.0 15.0 0.00 0.00 0.00 64 1005.0
20260504233052 78 151 6.0 20.0 0.00 0.00 0.00 63 1005.1
20260504231555 78 131 5.0 16.0 0.00 0.00 0.00 63 1005.2
20260504230054 79 262 4.0 18.0 0.00 0.00 0.00 63 1005.3
20260504224553 79 281 4.0 11.0 0.00 0.00 0.00 62 1005.8
20260504223047 79 123 5.0 14.0 0.00 0.00 0.00 62 1005.6
20260504221557 79 206 5.0 15.0 0.00 0.00 0.00 61 1005.8
20260504220045 80 128 4.0 14.0 0.00 0.00 0.00 60 1005.8
20260504214549 81 90 4.0 12.0 0.00 0.00 0.00 60 1006.0
20260504213048 80 108 6.0 18.0 0.00 0.00 0.00 60 1006.2
20260504211541 81 153 3.0 13.0 0.00 0.00 0.00 59 1006.4
20260504210045 81 107 6.0 16.0 0.00 0.00 0.00 59 1006.7
20260504204613 81 252 2.0 15.0 0.00 0.00 0.00 59 1007.0
20260504203035 81 225 4.0 19.0 0.00 0.00 0.00 59 1007.1
20260504201531 80 101 4.0 10.0 0.00 0.00 0.00 59 1007.6
20260504200035 79 160 6.0 15.0 0.00 0.00 0.00 60 1008.0
20260504194530 80 169 5.0 15.0 0.00 0.00 0.00 59 1008.4
20260504193026 79 126 6.0 15.0 0.00 0.00 0.00 58 1008.5
20260504191525 80 195 3.0 12.0 0.00 0.00 0.00 59 1008.7
20260504190023 79 248 4.0 12.0 0.00 0.00 0.00 58 1009.0
20260504184520 78 246 6.0 15.0 0.00 0.00 0.00 59 1009.2
20260504183018 78 135 5.0 13.0 0.00 0.00 0.00 60 1009.4
20260504181517 78 71 4.0 14.0 0.00 0.00 0.00 59 1009.7
20260504180015 77 172 2.0 13.0 0.00 0.00 0.00 59 1009.7
20260504174513 77 196 4.0 14.0 0.00 0.00 0.00 59 1010.0
20260504173011 77 219 3.0 15.0 0.00 0.00 0.00 58 1010.1
20260504171528 76 188 3.0 20.0 0.00 0.00 0.00 59 1010.5
20260504081548 63 198 3.0 9.0 0.00 0.00 0.00 70 1012.7
20260504050013 67 174 2.0 8.0 0.00 0.00 0.00 59 1014.8
20260504044522 67 159 3.0 8.0 0.00 0.00 0.00 58 1014.7
20260504043017 68 170 2.0 9.0 0.00 0.00 0.00 57 1014.9
20260504041512 68 105 2.0 9.0 0.00 0.00 0.00 54 1015.0
20260504040011 69 209 2.0 10.0 0.00 0.00 0.00 52 1015.0
20260504034512 70 188 2.0 8.0 0.00 0.00 0.00 51 1014.8
20260504033010 70 130 0.0 6.0 0.00 0.00 0.00 51 1014.8
20260504031511 70 167 2.0 7.0 0.00 0.00 0.00 51 1014.8
20260504030013 70 111 2.0 7.0 0.00 0.00 0.00 51 1014.7
20260504024510 71 84 2.0 8.0 0.00 0.00 0.00 51 1014.6
20260504023010 71 132 2.0 9.0 0.00 0.00 0.00 50 1014.6
20260504021508 71 218 2.0 7.0 0.00 0.00 0.00 48 1014.5
20260504020012 72 150 3.0 9.0 0.00 0.00 0.00 45 1014.6
20260504014507 73 152 2.0 8.0 0.00 0.00 0.00 43 1014.5
20260504013009 74 152 2.0 9.0 0.00 0.00 0.00 41 1014.3
20260504011506 74 107 3.0 9.0 0.00 0.00 0.00 40 1014.2
20260504010005 75 153 3.0 12.0 0.00 0.00 0.00 40 1014.3
20260504004506 76 134 3.0 8.0 0.00 0.00 0.00 39 1014.3